Starlink 35053

operational
NORAD ID: 65609 Int'l Des: 2025-207 Owner: SPXS Country: US Constellation: starlink
NOTLE

About Starlink 35053

Description loading...

Live Position

Loading 3D Globe...

Upcoming Passes

Altitude History

Altitude vs Time

uPlot chart will show altitude changes over time

Two-Line Element Set

1 65609U 25207T 25308.92572829 .00052301 00000-0 13344-2 0 9992
2 65609 97.6057 13.2884 0001760 90.7098 269.4348 15.39335006 9173
Epoch: Nov 4, 2025 • Age: 10 hours

Current Status

Altitude 457.8 km
Velocity 7.64 km/s
Sub-Earth Point 63.29°N, 43.02°E
Launch Date Sep 13, 2025
Age 0.1 years
Type internet

Technical Details

Classification Payload
Mass 575.00 kg
Dry Mass 530.00 kg
Total Mass 575.00 kg
Length 0.30 m
Diameter 4.10 m
Span 29.00 m
Shape Box + pan
Manufacturer SPXS
Bus Type Starlink V2MO
Phase Status In Orbit
Owner/State SPXS/US

Large Constellations

Loading constellations...